Weather in Guastatoya

Guatemala     14°51′41″N   90°02′38″W
temp.,
°C
wind,
m/s
gust,
m/s
humid.,
%
clouds,
%
prec.,
mm/h
press.,
hPa
HPBL,
m
28 july, wed
wed2800:00+17sse0096100 2.3 101711
03:00+16w2198100 0.0 101535
06:00+16w1198100 0.0 101624
09:00+21nw118094 0.0 1017503
12:00+26nnw11595 0.3 10141046
15:00+25e227078 2.1 1011865
18:00+19ese2392100 7.8 101242
21:00+18sse229698 5.9 101551
29 july, thu
thu2900:00+18se1198100 9.9 101543
03:00+17w1199100 5.0 101463
06:00+17sw1198100 7.5 101525
09:00+18wnw1196100 1.1 1017170
12:00+23nne117885 2.2 1015669
15:00+24e237190 1.5 10131081
18:00+19e129392 2.9 101443
21:00+17s119376 0.0 101611
30 july, fri
fri3000:00+17nw009327 0.0 101712
03:00+15w119697 0.0 101512
06:00+15w11975 0.0 101619
09:00+21nnw228023 0.0 1017549
12:00+24nne236638 0.1 10151219
15:00+26ene135834 0.6 10131576
18:00+21ene22830 1.0 101424
21:00+17e11940 0.0 101815
31 july, sat
sat3100:00+16w11975 0.0 101816
03:00+15w119820 0.0 101734
06:00+15w119820 0.0 101838
09:00+21nw22730 0.0 1018532
12:00+25n226224 0.0 10161135
15:00+25ene126413 0.6 10141217
18:00+20ene229022 2.7 101530
21:00+18e1298100 2.4 101852
1 august, sun
sun100:00+17wnw2298100 5.4 101768
03:00+18nw12100100 0.4 1016154
06:00+17wnw1210082 2.5 1017120
09:00+20nw128952 0.1 1018494
12:00+23ne237954 1.4 1016988
15:00+25ene236554 2.4 10141308
18:00+20nw118768 3.8 101513
21:00+18wsw019491 0.1 101811